STARLINK-36845, 68056

Orbit data source: Space-Track

STARLINK-36845, 68056 is a payload satellite owned by SpaceX/Seattle (US) in LEO that was launched on Mon, 02 Mar 2026 UTC via an FALCON 9 launch vehicle from the Air Force Eastern Test Range (AFETR). Payload-class satellites include a variety of spacecraft equipped with specific instruments for various scientific and technological missions. These include communications satellites like Starlink; space stations such as the ISS; scientific satellites like the Hubble; Earth observation satellites from companies like Planet Labs, Umbra, and HawkEye 360; GPS; miniature CubeSats for education and research; and military/defense satellites.

Loading next visibility...
Identifier
68056, 2026-041S
Orbit
LEO
Country
Flag of USUS
Related business
Manufacturer
SpaceX/Seattle
Mission
Operational spacecraft
Bus & Motor
STARLINK V2MO, Unknown motor
Mass
575 kg wet, ~530 kg dry
Launch date (UTC)
2026-03-02 (1 month ago)
Launch vehicle
FALCON 9
Launch site
Air Force Eastern Test Range (AFETR)
Object type
Payload
Rocket body
Debris
Shape & HBR
Unknown shape, 17.7 m
Radar Cross Section
RCS unknown

Expand to show TLE details & history
Last TLE update: 8 hours ago

TLE from 8 hours ago
0 STARLINK-36845
1 68056U 26041S   26105.25002315 -.01614398  00000-0 -30895-1 0  9990
2 68056  53.1593 240.2715 0001069  88.4177 237.4222 15.50558461  5956
Epoch: 2026-04-15T06:00Z
TLE epoch observation values (Epoch: 2026-04-15T06:00:02.000Z)
Latitude
-26.91422°
Longitude
-75.37428°
Altitude
423.46 km
Speed
7.657 km/s
True Right ascension
14h 32m 11s
True Declination
-26° 46' 08"
Sunlit
Object was in full shadow at epoch
Visualization orbit readout
Latitude
Unknown
Longitude
Unknown
Altitude
Unknown
Speed
Unknown
Apparent Right ascension
Unknown
Apparent Declination
Unknown
Sunlit
N/A
Visualization observer readout
Local Sidereal Time
20:40:41
Azimuth
Unknown
Elevation
Unknown
Doppler factor
Unknown
Orbital elements
Apogee altitude
416.079 km
Perigee altitude
414.627 km
Semi-major axis
6,793.49 km
Eccentricity
0.00011
Inclination
53.1593°
RAAN
240.2715°
Arg. of periapsis
88.4177°
True anomaly
237.41188°
Mean anomaly
237.4222°
Eccentric anomaly
237.41704°
Mean motion
3.87618 °/min
Orbital period
92.87 mins
BSTAR
-0.030895
Loading maneuver chart data...
Computing Atmospheric mass density...
Loading historical data...
Loading historical data...
Loading historical data...
Loading historical data...
Loading historical data...
Loading historical data...
Loading historical data...

Documentation

Showing up to 5 results
|